Morrisville, VT

3:13 PM EST on November 15, 2019 (GMT -0500)
Morrisville Stowe State

Weather History for KMVL - September, 2019

Change the Weather History Date:

Sunday, September 1, 2019

  Actual Average Record
Temperature  
Mean Temperature 58 °F 63 °F  
Max Temperature 73 °F 75 °F 90 °F (2010)
Min Temperature 44 °F 51 °F 39 °F (2017)
Degree Days  
Heating Degree Days 6 4  
Month to date heating degree days 6 4  
Since 1 July heating degree days 71 99  
Cooling Degree Days 0 1  
Month to date cooling degree days 0 1  
Year to date cooling degree days 243 248  
Growing Degree Days 8 (Base 50)    
Moisture  
Dew Point 48 °F    
Average Humidity 83    
Maximum Humidity 100    
Minimum Humidity 46    
Precipitation  
Precipitation 0.05 in 0.09 in 0.26 in (2001)
Month to date precipitation 0.05 0.09  
Year to date precipitation 27.28 23.85  
Sea Level Pressure  
Sea Level Pressure 30.35 in    
Wind  
Wind Speed 1 mph ()    
Max Wind Speed 13 mph    
Max Gust Speed 17 mph    
Visibility 5.7 miles    
Events Fog , Rain    
T = Trace of Precipitation, MM = Missing Value Source: Averaged Metar Reports

Daily Weather History Graph

Daily Weather History Graph

Search for Another Location

Airport or City:

Astronomy

Sep. 01, 2019 Rise Set
Actual Time 6:12 AM EDT 7:27 PM EDT
Civil Twilight 5:42 AM EDT 7:57 PM EDT
Nautical Twilight 5:06 AM EDT 8:33 PM EDT
Astronomical Twilight 4:28 AM EDT 9:11 PM EDT
Moon 8:43 AM EDT (9/1) 9:07 PM EDT (9/1)
Length of Visible Light 14h 14m
Length of Day
13h 14m
Waxing Crescent, 8% of the Moon is Illuminated
Sep 1
Waxing Crescent
Sep 5
First Quarter
Sep 14
Full
Sep 21
Last Quarter
Sep 28
New

Hourly Weather History & Observations

Time (EDT) Temp. Windchill Dew Point Humidity Pressure Visibility Wind Dir Wind Speed Gust Speed Precip Events Conditions
12:54 AM 46.9 °F - 45.0 °F 93% 30.37 in 10.0 mi Calm Calm - N/A   Clear
1:12 AM 46.0 °F - 44.1 °F 93% 30.36 in 8.0 mi Calm Calm - N/A   Partly Cloudy
1:54 AM 44.1 °F - 43.0 °F 96% 30.38 in 10.0 mi Calm Calm - N/A   Partly Cloudy
2:17 AM 46.0 °F - 44.1 °F 93% 30.37 in 10.0 mi Calm Calm - N/A   Mostly Cloudy
2:54 AM 46.0 °F - 44.1 °F 93% 30.38 in 1.2 mi Calm Calm - N/A   Overcast
2:56 AM 45.0 °F - 44.1 °F 97% 30.37 in 0.8 mi Calm Calm - N/A   Overcast
3:04 AM 45.0 °F 43.5 °F 44.1 °F 97% 30.36 in 1.5 mi NNW 3.5 mph - N/A   Overcast
3:13 AM 46.0 °F 44.8 °F 45.0 °F 96% 30.36 in 0.8 mi NNW 3.5 mph - N/A   Mist
3:54 AM 45.0 °F 43.5 °F 44.1 °F 97% 30.38 in 0.2 mi South 3.5 mph - N/A Fog Fog
4:14 AM 45.0 °F - 44.1 °F 97% 30.37 in 1.2 mi Calm Calm - N/A   Overcast
4:21 AM 45.0 °F - 45.0 °F 100% 30.37 in 0.8 mi Calm Calm - N/A   Mist
4:50 AM 44.6 °F - 44.6 °F 100% 30.38 in 1.0 mi Calm Calm - N/A   Mist
4:54 AM 45.0 °F - 45.0 °F 100% 30.39 in 1.0 mi Calm Calm - N/A   Overcast
5:03 AM 45.0 °F - 44.1 °F 97% 30.38 in 1.2 mi Calm Calm - N/A   Overcast
5:27 AM 45.0 °F - 44.1 °F 97% 30.39 in 3.0 mi Calm Calm - N/A   Overcast
5:48 AM 46.4 °F - 44.6 °F 93% 30.39 in 1.5 mi Calm Calm - N/A   Overcast
5:51 AM 46.4 °F - 44.6 °F 93% 30.39 in 0.8 mi Calm Calm - N/A   Mist
5:54 AM 46.0 °F - 45.0 °F 96% 30.40 in 0.5 mi Calm Calm - N/A Fog Fog
6:54 AM 46.0 °F - 45.0 °F 96% 30.41 in 0.5 mi Calm Calm - N/A Fog Fog
7:54 AM 46.9 °F - 46.0 °F 97% 30.43 in 0.2 mi Calm Calm - N/A Fog Fog
8:21 AM 48.0 °F - 46.9 °F 96% 30.41 in 1.2 mi SSW 4.6 mph - N/A   Overcast
8:27 AM 48.9 °F - 48.0 °F 97% 30.41 in 3.0 mi Calm Calm - N/A   Overcast
8:54 AM 51.1 °F - 50.0 °F 96% 30.43 in 10.0 mi Calm Calm - N/A   Scattered Clouds
9:54 AM 60.1 °F - 51.1 °F 72% 30.41 in 10.0 mi East 3.5 mph - N/A   Clear
10:54 AM 64.9 °F - 51.1 °F 61% 30.40 in 10.0 mi Variable 5.8 mph - N/A   Clear
11:54 AM 66.9 °F - 48.9 °F 52% 30.38 in 10.0 mi Calm Calm - N/A   Clear
12:54 PM 69.1 °F - 48.9 °F 49% 30.35 in 10.0 mi SSW 10.4 mph - N/A   Clear
1:54 PM 71.1 °F - 50.0 °F 47% 30.33 in 10.0 mi SSW 8.1 mph 16.1 mph N/A   Clear
2:54 PM 73.0 °F - 51.1 °F 46% 30.30 in 10.0 mi Variable 5.8 mph - N/A   Clear
3:54 PM 73.0 °F - 52.0 °F 48% 30.28 in 10.0 mi SSW 9.2 mph - N/A   Scattered Clouds
4:54 PM 73.0 °F - 53.1 °F 49% 30.26 in 10.0 mi Variable 6.9 mph - N/A   Mostly Cloudy
5:54 PM 69.1 °F - 53.1 °F 57% 30.26 in 10.0 mi South 11.5 mph 16.1 mph N/A   Scattered Clouds
6:54 PM 66.0 °F - 54.0 °F 65% 30.26 in 10.0 mi South 3.5 mph - N/A   Clear
7:54 PM 64.9 °F - 53.1 °F 65% 30.23 in 10.0 mi South 8.1 mph - N/A   Mostly Cloudy
8:54 PM 63.0 °F - 55.0 °F 75% 30.23 in 10.0 mi Calm Calm - N/A   Overcast
9:54 PM 61.0 °F - 55.9 °F 83% 30.22 in 10.0 mi Calm Calm - 0.00 in   Overcast
10:54 PM 60.1 °F - 55.9 °F 86% 30.21 in 10.0 mi Calm Calm - 0.00 in Rain Light Rain
11:54 PM 60.1 °F - 57.0 °F 90% 30.19 in 10.0 mi Calm Calm - 0.01 in   Overcast